• In Czech Republic
  • List of Countries
  • For 7 days
  • Water Temperature
  • Satellite Maps
  • Weather Map
  • Weather Widgets
  • user-avatar
    Login

    Hourly Weather Wigry

    Today, 19 April, Thursday

    Time Temperature Precipitation Wind Pressure Humidity
    00:00 +8°C° 0 mm 4 mps 756 mmHg 85%
    01:00 +7°C° 0 mm 4 mps 756 mmHg 88%
    02:00 +7°C° 0 mm 3 mps 756 mmHg 93%
    03:00 +6°C° 0 mm 4 mps 756 mmHg 94%
    04:00 +6°C° 0 mm 4 mps 756 mmHg 94%
    05:00 +5°C° 0 mm 4 mps 756 mmHg 94%
    06:00 +7°C° 0 mm 4 mps 756 mmHg 88%
    07:00 +8°C° 0 mm 5 mps 756 mmHg 82%
    08:00 +9°C° 0 mm 5 mps 756 mmHg 74%
    09:00 +11°C° 0 mm 6 mps 756 mmHg 68%
    10:00 +12°C° 0 mm 7 mps 756 mmHg 62%
    11:00 +15°C° 0 mm 7 mps 756 mmHg 55%
    12:00 +15°C° 0 mm 8 mps 756 mmHg 52%
    13:00 +16°C° 0 mm 8 mps 756 mmHg 50%
    14:00 +17°C° 0 mm 8 mps 756 mmHg 47%
    15:00 +16°C° 0 mm 8 mps 756 mmHg 48%
    16:00 +16°C° 0 mm 8 mps 756 mmHg 49%
    17:00 +15°C° 0 mm 8 mps 756 mmHg 50%
    18:00 +14°C° 0 mm 7 mps 756 mmHg 56%
    19:00 +11°C° 0 mm 6 mps 756 mmHg 61%
    20:00 +10°C° 0 mm 5 mps 757 mmHg 67%
    21:00 +10°C° 0 mm 4 mps 757 mmHg 71%
    22:00 +8°C° 0 mm 4 mps 757 mmHg 75%
    23:00 +8°C° 0 mm 3 mps 758 mmHg 79%

    Tomorrow, 20 April, Friday

    Time Temperature Precipitation Wind Pressure Humidity
    00:00 +7°C° 0 mm 3 mps 758 mmHg 83%
    01:00 +5°C° 0 mm 3 mps 758 mmHg 86%
    02:00 +6°C° 0 mm 2 mps 758 mmHg 89%
    03:00 +5°C° 0 mm 2 mps 758 mmHg 91%
    04:00 +5°C° 0 mm 2 mps 758 mmHg 92%
    05:00 +4°C° 0 mm 2 mps 758 mmHg 93%
    06:00 +6°C° 0 mm 2 mps 758 mmHg 86%
    07:00 +7°C° 0 mm 2 mps 758 mmHg 80%
    08:00 +9°C° 0 mm 2 mps 758 mmHg 73%
    09:00 +12°C° 0 mm 2 mps 758 mmHg 65%
    10:00 +14°C° 0 mm 2 mps 758 mmHg 57%
    11:00 +16°C° 0 mm 2 mps 758 mmHg 49%
    12:00 +17°C° 0 mm 2 mps 757 mmHg 47%
    13:00 +18°C° 0 mm 3 mps 757 mmHg 44%
    14:00 +19°C° 0 mm 3 mps 757 mmHg 41%
    15:00 +19°C° 0 mm 3 mps 756 mmHg 44%
    16:00 +19°C° 0 mm 3 mps 755 mmHg 46%
    17:00 +19°C° 0 mm 3 mps 755 mmHg 48%
    18:00 +17°C° 0 mm 3 mps 754 mmHg 56%
    19:00 +16°C° 0 mm 3 mps 754 mmHg 63%
    20:00 +14°C° 0 mm 2 mps 753 mmHg 70%
    21:00 +13°C° 0 mm 3 mps 753 mmHg 71%
    22:00 +12°C° 0 mm 3 mps 752 mmHg 71%
    23:00 +12°C° 0 mm 4 mps 752 mmHg 72%

    Day after tomorrow, 21 April, Saturday

    Time Temperature Precipitation Wind Pressure Humidity
    00:00 +12°C° 0 mm 4 mps 751 mmHg 72%
    01:00 +12°C° 0 mm 5 mps 751 mmHg 71%
    02:00 +12°C° 0 mm 5 mps 750 mmHg 70%
    03:00 +12°C° 0 mm 5 mps 749 mmHg 70%
    04:00 +12°C° 0 mm 5 mps 748 mmHg 70%
    05:00 +12°C° 0 mm 5 mps 748 mmHg 70%
    06:00 +13°C° 0 mm 6 mps 747 mmHg 72%
    07:00 +14°C° 0 mm 6 mps 747 mmHg 74%
    08:00 +14°C° 0 mm 7 mps 746 mmHg 76%
    09:00 +15°C° 0 mm 7 mps 747 mmHg 70%
    10:00 +16°C° 0 mm 7 mps 747 mmHg 64%
    11:00 +16°C° 0 mm 8 mps 747 mmHg 58%
    12:00 +17°C° 0 mm 8 mps 747 mmHg 55%
    13:00 +17°C° 0 mm 8 mps 747 mmHg 52%
    14:00 +17°C° 0 mm 8 mps 747 mmHg 49%
    15:00 +16°C° 0 mm 8 mps 747 mmHg 50%
    16:00 +15°C° 0 mm 7 mps 747 mmHg 51%
    17:00 +15°C° 0 mm 7 mps 748 mmHg 53%
    18:00 +13°C° 0 mm 6 mps 748 mmHg 59%
    19:00 +10°C° 0 mm 6 mps 748 mmHg 66%
    20:00 +9°C° 0 mm 5 mps 749 mmHg 73%
    21:00 +8°C° 0 mm 4 mps 749 mmHg 75%
    22:00 +7°C° 0 mm 4 mps 749 mmHg 78%
    23:00 +6°C° 0 mm 4 mps 749 mmHg 81%

    22 April, Sunday

    Time Temperature Precipitation Wind Pressure Humidity
    00:00 +5°C° 0 mm 3 mps 749 mmHg 82%
    01:00 +5°C° 0 mm 3 mps 749 mmHg 83%
    02:00 +4°C° 0 mm 3 mps 749 mmHg 85%
    03:00 +4°C° 0 mm 3 mps 749 mmHg 86%
    04:00 +3°C° 0 mm 3 mps 749 mmHg 87%
    05:00 +4°C° 0 mm 2 mps 749 mmHg 88%
    06:00 +5°C° 0 mm 3 mps 749 mmHg 82%
    07:00 +7°C° 0 mm 3 mps 749 mmHg 76%
    08:00 +9°C° 0 mm 3 mps 750 mmHg 70%
    09:00 +11°C° 0 mm 3 mps 750 mmHg 64%
    10:00 +13°C° 0 mm 3 mps 749 mmHg 57%
    11:00 +15°C° 0 mm 4 mps 749 mmHg 50%
    12:00 +15°C° 0 mm 4 mps 749 mmHg 48%
    13:00 +17°C° 0 mm 4 mps 749 mmHg 47%
    14:00 +16°C° 0 mm 5 mps 749 mmHg 45%
    15:00 +16°C° 0 mm 5 mps 748 mmHg 47%
    16:00 +16°C° 0 mm 5 mps 748 mmHg 49%
    17:00 +15°C° 0 mm 5 mps 748 mmHg 51%
    18:00 +13°C° 0 mm 4 mps 748 mmHg 59%
    19:00 +11°C° 0 mm 3 mps 748 mmHg 66%
    20:00 +9°C° 0 mm 3 mps 748 mmHg 74%
    21:00 +8°C° 0 mm 2 mps 748 mmHg 76%
    22:00 +7°C° 0 mm 2 mps 748 mmHg 79%
    23:00 +6°C° 0 mm 2 mps 748 mmHg 82%

    23 April, Monday

    Time Temperature Precipitation Wind Pressure Humidity
    00:00 +6°C° 0 mm 2 mps 748 mmHg 82%
    01:00 +6°C° 0 mm 1 mps 748 mmHg 82%
    02:00 +6°C° 0 mm 1 mps 748 mmHg 82%
    03:00 +6°C° 0 mm 1 mps 748 mmHg 82%
    04:00 +5°C° 0 mm 0 mps 748 mmHg 81%
    05:00 +5°C° 0 mm 0 mps 747 mmHg 81%
    06:00 +6°C° 0 mm 0 mps 747 mmHg 75%
    07:00 +9°C° 0 mm 1 mps 747 mmHg 69%
    08:00 +10°C° 0 mm 1 mps 747 mmHg 63%
    09:00 +12°C° 0 mm 2 mps 747 mmHg 58%
    10:00 +14°C° 0 mm 2 mps 746 mmHg 53%
    11:00 +16°C° 0 mm 3 mps 746 mmHg 48%
    12:00 +17°C° 0 mm 3 mps 745 mmHg 47%
    13:00 +18°C° 0 mm 3 mps 745 mmHg 46%
    14:00 +19°C° 0 mm 4 mps 744 mmHg 45%
    15:00 +19°C° 0 mm 4 mps 743 mmHg 47%
    16:00 +19°C° 0 mm 4 mps 742 mmHg 49%
    17:00 +19°C° 0 mm 4 mps 742 mmHg 52%
    18:00 +18°C° 0.2 mm 4 mps 741 mmHg 58%
    19:00 +17°C° 0.2 mm 4 mps 741 mmHg 65%
    20:00 +14°C° 0.2 mm 4 mps 740 mmHg 72%
    21:00 +14°C° 1 mm 5 mps 740 mmHg 78%
    22:00 +13°C° 1 mm 5 mps 740 mmHg 83%
    23:00 +13°C° 1 mm 6 mps 740 mmHg 89%

    24 April, Tuesday

    Time Temperature Precipitation Wind Pressure Humidity
    00:00 +10°C° 0.1 mm 6 mps 740 mmHg 88%
    01:00 +9°C° 0.1 mm 6 mps 740 mmHg 86%
    02:00 +7°C° 0.1 mm 6 mps 740 mmHg 85%
    03:00 +7°C° 0 mm 5 mps 741 mmHg 86%
    04:00 +6°C° 0 mm 5 mps 741 mmHg 88%
    05:00 +5°C° 0 mm 5 mps 742 mmHg 89%
    06:00 +6°C° 0 mm 5 mps 742 mmHg 86%
    07:00 +7°C° 0 mm 5 mps 742 mmHg 82%
    08:00 +8°C° 0 mm 6 mps 742 mmHg 79%
    09:00 +8°C° 0 mm 6 mps 742 mmHg 74%
    10:00 +9°C° 0 mm 6 mps 742 mmHg 68%
    11:00 +10°C° 0 mm 6 mps 743 mmHg 63%
    12:00 +10°C° 0.1 mm 6 mps 743 mmHg 63%
    13:00 +10°C° 0.1 mm 5 mps 743 mmHg 64%
    14:00 +10°C° 0.1 mm 5 mps 743 mmHg 64%
    15:00 +12°C° 0.2 mm 5 mps 742 mmHg 64%
    16:00 +12°C° 0.2 mm 4 mps 742 mmHg 64%
    17:00 +12°C° 0.2 mm 4 mps 742 mmHg 64%
    18:00 +11°C° 0.4 mm 4 mps 742 mmHg 71%
    19:00 +10°C° 0.4 mm 3 mps 741 mmHg 79%
    20:00 +9°C° 0.4 mm 3 mps 741 mmHg 87%
    21:00 +8°C° 0.3 mm 3 mps 741 mmHg 89%
    22:00 +8°C° 0.3 mm 3 mps 741 mmHg 91%
    23:00 +7°C° 0.3 mm 3 mps 742 mmHg 93%
    Show more